DAL1142 KSLC-KLAX

Flight info

Callsign DAL1142
Flight time 1h 8m
Altitude 38000
Route ARCHZ1 WINEN LAKRR HAKMN ANJLL4
Aircraft A21N/M-SDE2E3FGHIRWXY/LB1

Departure

Time 2026-04-20 04:43
Airport Salt Lake City International Airport (KSLC)

Arrival

Time 2026-04-20 05:52
Airport Los Angeles International Airport (KLAX)
Time Latitude Longitude Altitude Speed Heading
2026-04-20 04:01 40.78621 -111.98611 4227 ft 0 kts 174°
2026-04-20 04:30 40.78636 -111.98614 4234 ft 4 kts 174°
2026-04-20 04:30 40.78658 -111.98617 4235 ft 4 kts 173°
2026-04-20 04:30 40.78684 -111.98623 4234 ft 4 kts 162°
2026-04-20 04:31 40.78709 -111.98637 4233 ft 4 kts 148°
2026-04-20 04:31 40.78731 -111.98658 4232 ft 4 kts 132°
2026-04-20 04:31 40.78746 -111.98686 4232 ft 4 kts 115°
2026-04-20 04:31 40.78755 -111.98720 4231 ft 4 kts 98°
2026-04-20 04:32 40.78756 -111.98755 4230 ft 4 kts 85°
2026-04-20 04:32 40.78756 -111.98763 4229 ft 0 kts 84°
2026-04-20 04:34 40.78757 -111.98747 4229 ft 6 kts 84°
2026-04-20 04:35 40.78761 -111.98691 4233 ft 7 kts 85°
2026-04-20 04:35 40.78765 -111.98636 4233 ft 5 kts 85°
2026-04-20 04:35 40.78767 -111.98602 4234 ft 3 kts 85°
2026-04-20 04:35 40.78768 -111.98584 4234 ft 1 kts 85°
2026-04-20 04:36 40.78773 -111.98500 4236 ft 10 kts 85°
2026-04-20 04:36 40.78779 -111.98413 4236 ft 10 kts 84°
2026-04-20 04:36 40.78786 -111.98312 4235 ft 12 kts 85°
2026-04-20 04:37 40.78795 -111.98178 4234 ft 15 kts 85°
2026-04-20 04:37 40.78803 -111.98045 4236 ft 14 kts 84°
2026-04-20 04:37 40.78813 -111.97928 4237 ft 12 kts 83°
2026-04-20 04:37 40.78825 -111.97819 4237 ft 12 kts 83°
2026-04-20 04:38 40.78822 -111.97715 4234 ft 11 kts 120°
2026-04-20 04:38 40.78754 -111.97680 4236 ft 13 kts 175°
2026-04-20 04:38 40.78631 -111.97666 4236 ft 20 kts 174°
2026-04-20 04:38 40.78484 -111.97649 4231 ft 23 kts 175°
2026-04-20 04:39 40.78323 -111.97630 4229 ft 23 kts 175°
2026-04-20 04:39 40.78166 -111.97612 4228 ft 23 kts 175°
2026-04-20 04:39 40.77984 -111.97589 4252 ft 21 kts 172°
2026-04-20 04:39 40.77855 -111.97533 4254 ft 22 kts 163°
2026-04-20 04:40 40.77681 -111.97505 4257 ft 25 kts 175°
2026-04-20 04:40 40.77531 -111.97489 4255 ft 17 kts 176°
2026-04-20 04:40 40.77471 -111.97475 4255 ft 0 kts 153°
2026-04-20 04:41 40.77470 -111.97474 4255 ft 1 kts 151°
2026-04-20 04:41 40.77465 -111.97469 4255 ft 1 kts 143°
2026-04-20 04:41 40.77451 -111.97440 4255 ft 7 kts 108°
2026-04-20 04:42 40.77478 -111.97364 4253 ft 13 kts 44°
2026-04-20 04:42 40.77611 -111.97310 4253 ft 23 kts 346°
2026-04-20 04:42 40.77822 -111.97355 4254 ft 52 kts 354°
2026-04-20 04:42 40.78382 -111.97422 4232 ft 110 kts 355°
2026-04-20 04:43 40.79348 -111.97532 4232 ft 166 kts 355°
2026-04-20 04:43 40.80556 -111.97665 4628 ft 173 kts 356°
2026-04-20 04:43 40.81737 -111.97766 5320 ft 169 kts 356°
2026-04-20 04:43 40.82841 -111.98316 5779 ft 175 kts 317°
2026-04-20 04:44 40.83476 -111.99754 6130 ft 196 kts 283°
2026-04-20 04:44 40.83657 -112.01654 6432 ft 222 kts 272°
2026-04-20 04:44 40.83705 -112.03822 6661 ft 252 kts 271°
2026-04-20 04:44 40.83704 -112.06257 6989 ft 275 kts 263°
2026-04-20 04:45 40.83227 -112.08708 7703 ft 276 kts 245°
2026-04-20 04:45 40.82404 -112.10977 8685 ft 274 kts 240°
2026-04-20 04:45 40.81494 -112.13190 9630 ft 275 kts 239°
2026-04-20 04:45 40.80568 -112.15362 10496 ft 279 kts 239°
2026-04-20 04:46 40.79571 -112.17670 10889 ft 301 kts 239°
2026-04-20 04:46 40.78491 -112.20158 11180 ft 323 kts 239°
2026-04-20 04:46 40.77331 -112.22805 11482 ft 342 kts 238°
2026-04-20 04:46 40.75875 -112.25344 11966 ft 352 kts 224°
2026-04-20 04:47 40.73868 -112.27214 12635 ft 357 kts 206°
2026-04-20 04:47 40.71480 -112.28186 13402 ft 363 kts 193°
2026-04-20 04:47 40.68973 -112.28737 14180 ft 367 kts 191°
2026-04-20 04:47 40.66428 -112.29223 14876 ft 371 kts 190°
2026-04-20 04:48 40.63861 -112.29715 15537 ft 375 kts 190°
2026-04-20 04:48 40.61264 -112.30224 16210 ft 379 kts 190°
2026-04-20 04:48 40.58640 -112.30745 16892 ft 383 kts 190°
2026-04-20 04:48 40.56013 -112.31417 17554 ft 386 kts 196°
2026-04-20 04:49 40.53420 -112.32392 18198 ft 389 kts 198°
2026-04-20 04:49 40.50823 -112.33452 18759 ft 393 kts 198°
2026-04-20 04:49 40.48196 -112.34536 19297 ft 397 kts 198°
2026-04-20 04:49 40.45546 -112.35627 19834 ft 401 kts 198°
2026-04-20 04:50 40.42869 -112.36726 20387 ft 405 kts 198°
2026-04-20 04:50 40.40169 -112.37831 20918 ft 408 kts 198°
2026-04-20 04:50 40.37443 -112.38943 21440 ft 411 kts 198°
2026-04-20 04:50 40.34700 -112.40062 21970 ft 414 kts 198°
2026-04-20 04:51 40.31934 -112.41189 22465 ft 418 kts 198°
2026-04-20 04:51 40.29149 -112.42322 22938 ft 421 kts 197°
2026-04-20 04:51 40.26376 -112.43449 23415 ft 424 kts 197°
2026-04-20 04:51 40.23546 -112.44598 23846 ft 428 kts 197°
2026-04-20 04:52 40.20698 -112.45759 24282 ft 430 kts 198°
2026-04-20 04:52 40.17890 -112.47132 24770 ft 432 kts 204°
2026-04-20 04:52 40.15193 -112.48877 25217 ft 434 kts 208°
2026-04-20 04:52 40.12524 -112.50748 25639 ft 436 kts 208°
2026-04-20 04:53 40.09847 -112.52646 26060 ft 439 kts 208°
2026-04-20 04:53 40.07159 -112.54549 26465 ft 441 kts 208°
2026-04-20 04:53 40.04453 -112.56458 26838 ft 443 kts 208°
2026-04-20 04:53 40.01726 -112.58377 27198 ft 446 kts 208°
2026-04-20 04:54 39.98991 -112.60298 27570 ft 447 kts 208°
2026-04-20 04:54 39.96250 -112.62220 28070 ft 445 kts 208°
2026-04-20 04:54 39.93531 -112.64126 28582 ft 443 kts 208°
2026-04-20 04:54 39.90816 -112.66024 29077 ft 442 kts 208°
2026-04-20 04:55 39.88105 -112.67919 29544 ft 442 kts 208°
2026-04-20 04:55 39.85401 -112.69808 30053 ft 440 kts 208°
2026-04-20 04:55 39.82711 -112.71686 30481 ft 438 kts 208°
2026-04-20 04:55 39.80060 -112.73534 30892 ft 436 kts 208°
2026-04-20 04:56 39.77390 -112.75393 31304 ft 434 kts 208°
2026-04-20 04:56 39.74732 -112.77243 31713 ft 433 kts 208°
2026-04-20 04:56 39.72084 -112.79085 32137 ft 430 kts 208°
2026-04-20 04:56 39.69450 -112.80891 32656 ft 425 kts 206°
2026-04-20 04:57 39.66733 -112.82387 33065 ft 424 kts 200°
2026-04-20 04:57 39.63937 -112.83578 33377 ft 424 kts 198°
2026-04-20 04:57 39.61120 -112.84700 33701 ft 423 kts 198°
2026-04-20 04:57 39.58303 -112.85811 34033 ft 422 kts 198°
2026-04-20 04:58 39.55503 -112.86918 34313 ft 421 kts 198°
2026-04-20 04:58 39.53647 -112.87654 34476 ft 421 kts 198°
2026-04-20 04:58 39.50847 -112.88764 34710 ft 421 kts 198°
2026-04-20 04:58 39.48049 -112.89875 34936 ft 421 kts 198°
2026-04-20 04:59 39.45252 -112.90986 35156 ft 420 kts 198°
2026-04-20 04:59 39.42457 -112.92095 35347 ft 421 kts 198°
2026-04-20 04:59 39.39656 -112.93206 35534 ft 421 kts 198°
2026-04-20 04:59 39.36854 -112.94316 35729 ft 421 kts 198°
2026-04-20 05:00 39.29374 -112.97276 36274 ft 420 kts 199°
2026-04-20 05:00 39.18213 -113.01682 36959 ft 420 kts 199°
2026-04-20 05:00 39.07030 -113.06080 37609 ft 420 kts 199°
2026-04-20 05:00 38.99797 -113.08918 37966 ft 420 kts 199°
2026-04-20 05:01 38.96999 -113.10014 37985 ft 421 kts 199°
2026-04-20 05:01 38.91392 -113.12208 37991 ft 421 kts 199°
2026-04-20 05:02 38.85781 -113.14399 37993 ft 421 kts 199°
2026-04-20 05:02 38.80171 -113.16587 37996 ft 421 kts 199°
2026-04-20 05:03 38.74600 -113.18756 37989 ft 421 kts 199°
2026-04-20 05:03 38.68985 -113.20938 37999 ft 422 kts 199°
2026-04-20 05:04 38.63369 -113.23118 38036 ft 422 kts 199°
2026-04-20 05:04 38.38230 -113.32831 38046 ft 420 kts 199°
2026-04-20 05:05 38.15818 -113.41427 38001 ft 421 kts 199°
2026-04-20 05:05 37.93418 -113.49969 37996 ft 419 kts 199°
2026-04-20 05:06 37.71378 -113.59555 37988 ft 420 kts 201°
2026-04-20 05:06 37.49255 -113.69117 37969 ft 420 kts 201°
2026-04-20 05:07 37.27089 -113.78641 37937 ft 422 kts 201°
2026-04-20 05:07 37.04834 -113.88142 37940 ft 422 kts 201°
2026-04-20 05:08 36.87312 -113.96310 37255 ft 422 kts 223°
2026-04-20 05:08 36.85111 -113.98715 36731 ft 418 kts 213°
2026-04-20 05:08 36.82489 -114.00242 36576 ft 419 kts 197°
2026-04-20 05:09 36.76689 -114.01438 36726 ft 424 kts 190°
2026-04-20 05:09 36.73775 -114.02018 36859 ft 424 kts 193°
2026-04-20 05:09 36.70891 -114.02791 36991 ft 423 kts 196°
2026-04-20 05:09 36.68052 -114.03741 37118 ft 423 kts 198°
2026-04-20 05:10 36.61669 -114.06319 37388 ft 423 kts 201°
2026-04-20 05:10 36.50467 -114.11115 37771 ft 427 kts 201°
2026-04-20 05:10 36.47637 -114.12301 37862 ft 428 kts 201°
2026-04-20 05:11 36.41979 -114.14668 37852 ft 429 kts 201°
2026-04-20 05:11 36.33933 -114.18027 37834 ft 429 kts 201°
2026-04-20 05:12 36.13028 -114.26733 37847 ft 430 kts 202°
2026-04-20 05:12 36.07813 -114.30203 37842 ft 425 kts 220°
2026-04-20 05:13 36.03583 -114.35411 37836 ft 423 kts 229°
2026-04-20 05:13 35.89077 -114.55551 37866 ft 422 kts 229°
2026-04-20 05:14 35.85164 -114.60945 37818 ft 422 kts 229°
2026-04-20 05:14 35.70224 -114.81462 37929 ft 422 kts 229°
2026-04-20 05:15 35.54489 -115.02935 37933 ft 423 kts 229°
2026-04-20 05:15 35.38444 -115.24092 37954 ft 424 kts 228°
2026-04-20 05:16 35.22259 -115.45122 37972 ft 426 kts 228°
2026-04-20 05:16 35.14056 -115.55730 37964 ft 426 kts 228°
2026-04-20 05:17 35.09979 -115.60969 37956 ft 426 kts 228°
2026-04-20 05:17 35.05911 -115.66171 37944 ft 426 kts 228°
2026-04-20 05:18 35.01814 -115.71403 37939 ft 426 kts 228°
2026-04-20 05:18 34.97716 -115.76630 37925 ft 426 kts 228°
2026-04-20 05:19 34.93616 -115.81851 37928 ft 426 kts 228°
2026-04-20 05:19 34.89512 -115.87069 37924 ft 426 kts 228°
2026-04-20 05:20 34.85407 -115.92279 37907 ft 426 kts 228°
2026-04-20 05:20 34.81297 -115.97489 37912 ft 426 kts 228°
2026-04-20 05:20 34.79268 -116.00058 37672 ft 428 kts 228°
2026-04-20 05:21 34.77203 -116.02675 37408 ft 430 kts 228°
2026-04-20 05:21 34.75130 -116.05315 37149 ft 432 kts 229°
2026-04-20 05:21 34.73052 -116.07964 36884 ft 433 kts 229°
2026-04-20 05:21 34.70969 -116.10618 36624 ft 434 kts 229°
2026-04-20 05:22 34.68877 -116.13281 36365 ft 436 kts 229°
2026-04-20 05:22 34.66780 -116.15947 36115 ft 437 kts 229°
2026-04-20 05:22 34.64679 -116.18617 35865 ft 438 kts 229°
2026-04-20 05:22 34.62573 -116.21292 35579 ft 437 kts 229°
2026-04-20 05:23 34.60477 -116.23952 34983 ft 436 kts 229°
2026-04-20 05:23 34.58374 -116.26617 34272 ft 438 kts 229°
2026-04-20 05:23 34.56259 -116.29293 33507 ft 440 kts 230°
2026-04-20 05:23 34.54139 -116.31977 32725 ft 442 kts 229°
2026-04-20 05:24 34.52009 -116.34672 31960 ft 443 kts 229°
2026-04-20 05:24 34.49875 -116.37369 31187 ft 444 kts 229°
2026-04-20 05:24 34.47732 -116.40075 30391 ft 446 kts 229°
2026-04-20 05:24 34.45579 -116.42792 29492 ft 448 kts 229°
2026-04-20 05:25 34.43439 -116.45539 28577 ft 448 kts 231°
2026-04-20 05:25 34.41551 -116.48479 27687 ft 446 kts 239°
2026-04-20 05:25 34.39990 -116.51771 26767 ft 445 kts 244°
2026-04-20 05:25 34.38620 -116.55062 26222 ft 438 kts 245°
2026-04-20 05:26 34.37295 -116.58303 26112 ft 421 kts 245°
2026-04-20 05:26 34.36024 -116.61409 26023 ft 404 kts 245°
2026-04-20 05:26 34.34800 -116.64391 25945 ft 388 kts 245°
2026-04-20 05:26 34.33620 -116.67263 25760 ft 376 kts 245°
2026-04-20 05:27 34.32475 -116.70100 25202 ft 375 kts 245°
2026-04-20 05:27 34.31339 -116.72931 24717 ft 373 kts 245°
2026-04-20 05:27 34.30210 -116.75744 24269 ft 371 kts 244°
2026-04-20 05:27 34.29089 -116.78536 23804 ft 369 kts 244°
2026-04-20 05:28 34.27967 -116.81323 23320 ft 369 kts 244°
2026-04-20 05:28 34.26821 -116.84167 23029 ft 382 kts 244°
2026-04-20 05:28 34.25660 -116.87046 22662 ft 379 kts 243°
2026-04-20 05:28 34.24513 -116.89888 22143 ft 374 kts 243°
2026-04-20 05:29 34.23377 -116.92701 21622 ft 370 kts 243°
2026-04-20 05:29 34.22253 -116.95479 21111 ft 366 kts 243°
2026-04-20 05:29 34.21224 -116.98273 20616 ft 363 kts 250°
2026-04-20 05:29 34.20527 -117.01194 20336 ft 379 kts 254°
2026-04-20 05:30 34.19871 -117.04437 20068 ft 406 kts 255°
2026-04-20 05:30 34.19207 -117.07814 19817 ft 429 kts 255°
2026-04-20 05:30 34.18511 -117.11359 19572 ft 437 kts 255°
2026-04-20 05:30 34.17806 -117.14929 19328 ft 436 kts 255°
2026-04-20 05:31 34.17100 -117.18487 19097 ft 435 kts 255°
2026-04-20 05:31 34.16392 -117.22042 18930 ft 435 kts 255°
2026-04-20 05:31 34.15684 -117.25590 18699 ft 434 kts 255°
2026-04-20 05:31 34.14976 -117.29125 18469 ft 433 kts 255°
2026-04-20 05:32 34.14268 -117.32656 18230 ft 432 kts 255°
2026-04-20 05:32 34.13562 -117.36170 17965 ft 431 kts 254°
2026-04-20 05:32 34.12856 -117.39674 17690 ft 429 kts 254°
2026-04-20 05:32 34.12150 -117.43176 17417 ft 428 kts 254°
2026-04-20 05:33 34.11445 -117.46663 17185 ft 426 kts 254°
2026-04-20 05:33 34.10744 -117.50131 16932 ft 425 kts 255°
2026-04-20 05:33 34.10043 -117.53592 16673 ft 423 kts 255°
2026-04-20 05:33 34.09344 -117.57037 16422 ft 422 kts 254°
2026-04-20 05:34 34.08647 -117.60462 16172 ft 420 kts 254°
2026-04-20 05:34 34.07949 -117.63884 15910 ft 418 kts 253°
2026-04-20 05:34 34.06246 -117.70435 15400 ft 413 kts 250°
2026-04-20 05:35 34.05222 -117.73607 15087 ft 396 kts 244°
2026-04-20 05:35 34.04208 -117.76612 14821 ft 380 kts 247°
2026-04-20 05:35 34.03295 -117.79540 14467 ft 367 kts 247°
2026-04-20 05:35 34.02386 -117.82364 14091 ft 355 kts 243°
2026-04-20 05:36 34.01344 -117.85016 13690 ft 347 kts 248°
2026-04-20 05:36 34.00759 -117.87785 13423 ft 332 kts 253°
2026-04-20 05:36 34.00267 -117.90416 13068 ft 313 kts 256°
2026-04-20 05:36 33.99937 -117.92971 12544 ft 307 kts 259°
2026-04-20 05:37 33.99488 -117.95462 12027 ft 301 kts 243°
2026-04-20 05:37 33.98316 -117.97493 11537 ft 294 kts 220°
2026-04-20 05:37 33.96714 -117.98985 11097 ft 288 kts 212°
2026-04-20 05:37 33.95066 -118.00307 10499 ft 282 kts 211°
2026-04-20 05:38 33.93431 -118.01592 9809 ft 280 kts 211°
2026-04-20 05:38 33.91712 -118.02668 9225 ft 278 kts 194°
2026-04-20 05:38 33.89806 -118.02845 8740 ft 275 kts 175°
2026-04-20 05:38 33.87914 -118.02575 8295 ft 272 kts 172°
2026-04-20 05:39 33.86046 -118.02237 7882 ft 269 kts 171°
2026-04-20 05:39 33.84241 -118.01902 7670 ft 254 kts 171°
2026-04-20 05:39 33.82555 -118.01570 7288 ft 246 kts 167°
2026-04-20 05:39 33.81071 -118.00680 7116 ft 235 kts 138°
2026-04-20 05:40 33.80099 -117.99168 6938 ft 225 kts 123°
2026-04-20 05:40 33.79535 -117.97427 6544 ft 227 kts 98°
2026-04-20 05:40 33.79796 -117.95557 6153 ft 232 kts 65°
2026-04-20 05:40 33.80870 -117.94164 6004 ft 230 kts 33°
2026-04-20 05:41 33.82318 -117.93338 5873 ft 231 kts 23°
2026-04-20 05:41 33.83822 -117.92659 5452 ft 229 kts 21°
2026-04-20 05:41 33.85314 -117.92013 5027 ft 226 kts 21°
2026-04-20 05:41 33.86781 -117.91384 4647 ft 222 kts 21°
2026-04-20 05:42 33.88227 -117.90763 4209 ft 220 kts 21°
2026-04-20 05:42 33.89654 -117.90135 3794 ft 217 kts 21°
2026-04-20 05:42 33.91068 -117.89528 3385 ft 214 kts 14°
2026-04-20 05:42 33.92515 -117.89620 3053 ft 210 kts 338°
2026-04-20 05:43 33.93614 -117.90704 2989 ft 210 kts 302°
2026-04-20 05:43 33.94142 -117.92335 2989 ft 210 kts 284°
2026-04-20 05:43 33.94455 -117.94034 2981 ft 204 kts 282°
2026-04-20 05:43 33.94730 -117.95684 2755 ft 196 kts 281°
2026-04-20 05:44 33.94985 -117.97233 2615 ft 181 kts 281°
2026-04-20 05:44 33.95222 -117.98684 2589 ft 176 kts 281°
2026-04-20 05:44 33.95464 -118.00175 2589 ft 186 kts 281°
2026-04-20 05:44 33.95717 -118.01721 2585 ft 189 kts 281°
2026-04-20 05:45 33.96026 -118.03265 2582 ft 190 kts 288°
2026-04-20 05:45 33.96478 -118.04762 2583 ft 191 kts 291°
2026-04-20 05:45 33.96965 -118.06276 2572 ft 198 kts 291°
2026-04-20 05:45 33.97487 -118.07862 2558 ft 208 kts 291°
2026-04-20 05:46 33.97991 -118.09510 2557 ft 210 kts 283°
2026-04-20 05:46 33.98131 -118.11254 2558 ft 210 kts 266°
2026-04-20 05:46 33.97985 -118.13005 2580 ft 210 kts 262°
2026-04-20 05:46 33.97797 -118.14745 2576 ft 210 kts 262°
2026-04-20 05:47 33.97618 -118.16463 2587 ft 210 kts 262°
2026-04-20 05:47 33.97441 -118.18212 2590 ft 210 kts 262°
2026-04-20 05:47 33.97268 -118.19955 2590 ft 210 kts 262°
2026-04-20 05:47 33.97095 -118.21701 2592 ft 210 kts 262°
2026-04-20 05:48 33.96920 -118.23445 2592 ft 210 kts 262°
2026-04-20 05:48 33.96743 -118.25186 2580 ft 208 kts 262°
2026-04-20 05:48 33.96571 -118.26860 2359 ft 196 kts 262°
2026-04-20 05:48 33.96408 -118.28453 2097 ft 187 kts 262°
2026-04-20 05:49 33.96252 -118.29981 1832 ft 180 kts 262°
2026-04-20 05:49 33.96103 -118.31444 1591 ft 172 kts 262°
2026-04-20 05:49 33.96009 -118.32368 1452 ft 163 kts 262°
2026-04-20 05:49 33.95832 -118.34107 1157 ft 150 kts 262°
2026-04-20 05:50 33.95749 -118.34916 1029 ft 145 kts 262°
2026-04-20 05:50 33.95628 -118.36100 835 ft 139 kts 262°
2026-04-20 05:50 33.95512 -118.37244 657 ft 136 kts 262°
2026-04-20 05:50 33.95396 -118.38371 464 ft 135 kts 262°
2026-04-20 05:51 33.95282 -118.39482 292 ft 133 kts 261°
2026-04-20 05:51 33.95168 -118.40589 139 ft 130 kts 261°
2026-04-20 05:51 33.95073 -118.41514 129 ft 86 kts 263°
2026-04-20 05:51 33.95019 -118.42052 124 ft 52 kts 264°
2026-04-20 05:52 33.94975 -118.42416 124 ft 35 kts 256°
2026-04-20 05:52 33.94898 -118.42613 126 ft 16 kts 233°
2026-04-20 05:52 33.94850 -118.42683 128 ft 0 kts 224°
2026-04-20 05:53 33.94823 -118.42711 126 ft 11 kts 219°
2026-04-20 05:54 33.94756 -118.42761 126 ft 12 kts 202°
2026-04-20 05:54 33.94687 -118.42780 126 ft 9 kts 181°
2026-04-20 05:54 33.94637 -118.42738 127 ft 9 kts 108°
2026-04-20 05:54 33.94644 -118.42637 129 ft 13 kts 82°
2026-04-20 05:55 33.94656 -118.42523 129 ft 14 kts 86°
2026-04-20 05:55 33.94665 -118.42405 126 ft 14 kts 83°
2026-04-20 05:55 33.94678 -118.42286 127 ft 15 kts 82°
2026-04-20 05:55 33.94692 -118.42161 125 ft 16 kts 84°
2026-04-20 05:56 33.94705 -118.42028 127 ft 16 kts 82°
2026-04-20 05:56 33.94719 -118.41889 126 ft 17 kts 83°
2026-04-20 05:56 33.94734 -118.41743 127 ft 18 kts 83°
2026-04-20 05:56 33.94745 -118.41636 129 ft 10 kts 83°
2026-04-20 05:57 33.94751 -118.41549 123 ft 11 kts 83°
2026-04-20 05:57 33.94762 -118.41456 124 ft 10 kts 84°
2026-04-20 05:57 33.94734 -118.41394 125 ft 8 kts 154°
2026-04-20 05:57 33.94675 -118.41382 126 ft 9 kts 173°
2026-04-20 05:58 33.94609 -118.41371 127 ft 10 kts 172°
2026-04-20 05:58 33.94560 -118.41374 124 ft 5 kts 213°
2026-04-20 05:58 33.94546 -118.41411 125 ft 5 kts 261°
2026-04-20 05:58 33.94543 -118.41446 125 ft 2 kts 264°
2026-04-20 05:59 33.94541 -118.41461 125 ft 0 kts 264°